Погода в Подгородней Покровке

Россия / Оренбургская область     51°49′55″N   54°58′34″E
темп.,
°C
ветер,
м/с
пор.,
м/с
влажн.,
%
обл.,
%
осадки,
мм/ч
давл.,
гПа
погр.,
м
26 июля, пн
пн2623:00+18с512440 0.0 1019266
02:00+15с36500 0.0 1020112
05:00+13с34540 0.0 102059
08:00+17с34420 0.0 1021259
11:00+22с33280 0.0 10211850
14:00+25с33231 0.0 10202515
17:00+26с43226 0.0 10182847
20:00+23с68288 0.0 1019639
27 июля, вт
вт2723:00+18с34362 0.0 101942
02:00+16с22420 0.0 102019
05:00+14ссз22471 0.0 101914
08:00+17с34415 0.0 1020235
11:00+24с43283 0.0 10192032
14:00+26ссз45248 0.0 10172924
17:00+27сз452319 0.0 10153099
20:00+25ссз582752 0.0 1014487
28 июля, ср
ср2823:00+21ссз37396 0.0 1015162
02:00+17з22515 0.0 101512
05:00+16сз23601 0.0 101443
08:00+18ссз57640 0.0 1015472
11:00+23с78350 0.0 10151720
14:00+25с78260 0.0 10142324
17:00+26ссз56230 0.0 10132538
20:00+24ссв47282 0.0 1013409
29 июля, чт
чт2923:00+18ссв22390 0.0 101419
02:00+15св22460 0.0 101511
05:00+14ююз11460 0.0 101511
08:00+19зюз11370 0.0 1015166
11:00+25зюз33290 0.0 10151506
14:00+28зюз4523100 0.0 10132931
17:00+29зюз4522100 0.0 10123075
20:00+27ю2330100 0.0 101163
30 июля, пт
пт3023:00+24ю3733100 0.0 1010162
02:00+21зюз1259100 0.1 101181
05:00+23ю6153392 0.2 1009616
08:00+23ююз51041100 0.2 1009715
11:00+28зюз574078 0.2 10091489
14:00+30з71035100 0.0 10082844
17:00+30зсз812314 0.3 10082450
20:00+30з71030100 0.0 10071126